• Join FlightAware (Why Join?)
  • Login
  • US Flag 
04:50AM EDT


 

Airport Tracker/Info


-or-


 

Live Flight TrackerFlight Track Log ✈ AMF1062 ✈ 03-May-2013 ✈ KBOI - KSLC

Flight Track Log - Related Links

Times and Time Zones

All times are in EDT time to prevent confusion due to time zone crossing. See the AMF1062 flight status page for this flight to view local times or setup timezone preferences in your user account.

Time Position Orientation Groundspeed Altitude Reporting Facility
EDT Latitude Longitude Course Direction KTS MPH feet Rate Location/Type
06:35PM 43.5647 -116.2919 132° Southeast 161 185 5,400  Level Salt Lake Center
06:36PM 43.5131 -116.2569 154° Southeast 197 227 7,100 1,260 Climbing Salt Lake Center
06:37PM 43.4839 -116.1886 120° Southeast 198 228 8,100 960 Climbing Salt Lake Center
06:38PM 43.4536 -116.1256 123° Southeast 205 236 9,100 660 Climbing Salt Lake Center
06:39PM 43.4186 -116.0533 124° Southeast 215 247 9,500 180 Climbing Salt Lake Center
06:40PM 43.3301 -115.8451 132° Southeast  Level FlightAware Approximate
06:40PM 43.3833 -115.9769 122° Southeast 227 261 9,500  Level Salt Lake Center
06:41PM 43.3472 -115.8994 123° Southeast 228 262 9,400  Descending Salt Lake Center
06:42PM 43.3075 -115.8369 131° Southeast 228 262 9,500  Climbing Salt Lake Center
06:43PM 43.2619 -115.7683 132° Southeast 233 268 9,400  Descending Salt Lake Center
06:44PM 43.2186 -115.6981 130° Southeast 231 266 9,500  Climbing Salt Lake Center
06:45PM 43.1783 -115.6314 130° Southeast 233 268 9,400  Descending Salt Lake Center
06:46PM 43.1336 -115.5644 132° Southeast 230 265 9,500  Climbing Salt Lake Center
06:47PM 43.0881 -115.4961 132° Southeast 231 266 9,400 -60 Descending Salt Lake Center
06:48PM 43.0400 -115.4317 136° Southeast 231 266 9,400  Level Salt Lake Center
06:49PM 42.9967 -115.3706 134° Southeast 233 268 9,500  Climbing Salt Lake Center
06:50PM 42.9525 -115.3003 131° Southeast 234 269 9,500  Level Salt Lake Center
06:51PM 42.9089 -115.2289 130° Southeast 233 268 9,500  Level Salt Lake Center
06:52PM 42.8658 -115.1600 130° Southeast 229 264 9,500  Level Salt Lake Center
06:53PM 42.8286 -115.0933 127° Southeast 228 262 9,500 -60 Level Salt Lake Center
06:54PM 42.7894 -115.0208 126° Southeast 228 262 9,400 -60 Descending Salt Lake Center
06:55PM 42.7547 -114.9442 122° Southeast 227 261 9,400  Level Salt Lake Center
06:56PM 42.7228 -114.8656 119° Southeast 228 262 9,400  Level Salt Lake Center
06:57PM 42.6900 -114.7942 122° Southeast 229 264 9,500  Climbing Salt Lake Center
06:58PM 42.6486 -114.7231 128° Southeast 229 264 9,400  Descending Salt Lake Center
06:59PM 42.6047 -114.6558 132° Southeast 228 262 9,500  Climbing Salt Lake Center
07:00PM 42.5575 -114.5917 135° Southeast 229 264 9,400  Descending Salt Lake Center
07:01PM 42.5133 -114.5344 136° Southeast 228 262 9,500  Climbing Salt Lake Center
07:02PM 42.4744 -114.4636 127° Southeast 226 260 9,500  Level Salt Lake Center
07:03PM 42.4433 -114.3836 118° Southeast 228 262 9,500  Level Salt Lake Center
07:04PM 42.4131 -114.3111 119° Southeast 229 264 9,500  Level Salt Lake Center
07:05PM 42.3817 -114.2319 118° Southeast 229 264 9,500  Level Salt Lake Center
07:06PM 42.3550 -114.1633 118° Southeast 227 261 9,500  Level Salt Lake Center
07:08PM 42.3264 -114.0823 115° Southeast  Level FlightAware Approximate
07:14PM 42.1542 -113.6069 116° Southeast 229 264 9,500  Level Salt Lake Center
07:15PM 42.1452 -113.5669 115° Southeast  Level FlightAware Approximate
07:15PM 42.1350 -113.5289 108° East 224 258 9,500  Level Salt Lake Center
07:16PM 42.1189 -113.4937 116° Southeast  Level FlightAware Approximate
07:16PM 42.1133 -113.4486 110° East 226 260 9,500  Level Salt Lake Center
07:17PM 42.0923 -113.4207 116° Southeast  Level FlightAware Approximate
07:17PM 42.0878 -113.3511 109° East 228 262 9,500  Level Salt Lake Center
07:18PM 42.0657 -113.3477 116° Southeast  Level FlightAware Approximate
07:18PM 42.0664 -113.2719 110° East 227 261 9,500  Level Salt Lake Center
07:19PM 42.0390 -113.2749 116° Southeast  Level FlightAware Approximate
07:19PM 42.0408 -113.1956 114° Southeast 227 261 9,400  Level Salt Lake Center
07:20PM 42.0036 -113.1275 126° Southeast 227 261 9,500  Climbing Salt Lake Center
07:21PM 41.9514 -113.0781 145° Southeast 226 260 9,500  Level Salt Lake Center
07:22PM 41.9061 -113.0194 136° Southeast 227 261 9,500  Level Salt Lake Center
07:23PM 41.8633 -112.9592 134° Southeast 225 259 9,500  Level Salt Lake Center
07:24PM 41.8203 -112.8986 134° Southeast 225 259 9,500  Level Salt Lake Center
07:25PM 41.7697 -112.8242 132° Southeast 225 259 9,500  Level Salt Lake Center
07:26PM 41.7289 -112.7614 131° Southeast 224 258 9,500  Level Salt Lake Center
07:27PM 41.6894 -112.7000 131° Southeast 222 255 9,500  Level Salt Lake Center
07:28PM 41.6558 -112.6389 126° Southeast 215 247 9,500  Level Salt Lake Center
07:28PM 41.6328 -112.6067 134° Southeast 216 249 9,500  Level Salt Lake Center
07:29PM 41.6072 -112.5808 143° Southeast 219 252 9,500  Level Salt Lake Center
07:29PM 41.5928 -112.5542 126° Southeast 218 251 9,500  Level Salt Lake Center
07:30PM 41.5639 -112.5225 141° Southeast 220 253 9,500  Level Salt Lake Center
07:30PM 41.5492 -112.4944 125° Southeast 221 254 9,500  Level Salt Lake Center
07:31PM 41.5200 -112.4667 145° Southeast 220 253 9,500  Level Salt Lake Center
07:31PM 41.5042 -112.4381 126° Southeast 224 258 9,500  Level Salt Lake Center
07:32PM 41.4628 -112.4042 148° Southeast 220 253 9,500  Level Salt Lake Center
07:32PM 41.4439 -112.3811 138° Southeast 220 253 9,500  Level Salt Lake Center
07:33PM 41.4111 -112.3572 151° Southeast 224 258 9,500 60 Level Salt Lake Center
07:34PM 41.3917 -112.3331 137° Southeast 222 255 9,600 1,080 Climbing Salt Lake Center
07:34PM 41.3486 -112.2989 149° Southeast 202 232 11,000 840 Climbing Salt Lake Center
07:35PM 41.3128 -112.2803 159° South 204 235 11,000 60 Level Salt Lake Center
07:36PM 41.2903 -112.2644 152° Southeast 216 249 11,100  Climbing Salt Lake Center
07:36PM 41.2550 -112.2508 164° South 221 254 11,000 -120 Descending Salt Lake Center
07:37PM 41.2214 -112.2308 156° South 224 258 11,000  Level Salt Lake Center
07:37PM 41.1972 -112.2208 163° South 224 258 11,000 -120 Level Salt Lake Center
07:38PM 41.1475 -112.1931 157° South 224 258 10,900 -120 Descending Salt Lake Center
07:38PM 41.1286 -112.1850 162° South 222 255 10,900 60 Level Salt Lake Center
07:39PM 41.0897 -112.1614 155° Southeast 221 254 11,000  Climbing Salt Lake Center
07:39PM 41.0725 -112.1539 162° South 220 253 10,900  Descending Salt Lake Center
07:40PM 41.0547 -112.1478 165° South 217 250 11,000 60 Climbing Salt Lake Center
07:40PM 41.0147 -112.1394 171° South 213 245 11,000  Level Salt Lake Center
07:41PM 40.9558 -112.1264 170° South 217 250 11,000  Level Salt Lake Center
07:42PM 40.9311 -112.1214 171° South 218 251 11,000  Level Salt Lake Center
07:42PM 40.8958 -112.1131 170° South 220 253 11,000  Level Salt Lake Center
07:43PM 40.8731 -112.1100 174° South 220 253 11,000  Level Salt Lake Center
07:43PM 40.8356 -112.1003 169° South 220 253 11,000 -720 Level Salt Lake Center
07:44PM 40.7650 -112.0747 165° South 222 255 9,700 -1,500 Descending Salt Lake Center
07:45PM 40.7042 -112.0550 166° South 225 259 8,000 -1,020 Descending Salt Lake Center
07:47PM 40.6758 -111.9928 121° Southeast 208 239 7,500 -720 Descending Salt Lake Center
07:48PM 40.7186 -111.9922 North 153 176 6,400 -1,320 Descending Salt Lake Center
07:49PM 40.7489 -111.9925 360° North 140 161 5,100 -1,140 Descending Salt Lake Center
07:50PM 40.7839 -111.9958 356° North 129 148 4,300 -780 Descending Salt Lake Center